Time,TemperatureF,DewpointF,PressureIn,WindDirection,WindDirectionDegrees,WindSpeedMPH,WindSpeedGustMPH,Humidity,HourlyPrecipIn,Conditions,Clouds,dailyrainin,SoftwareType,DateUTC
2013-03-21 00:00:00,32.4,13.9,29.95,NW,315,0.0,3.0,46,0.00,,,0.00,Wunderground v.1.13,2013-03-21 04:00:00,
2013-03-21 00:10:00,32.4,13.9,29.95,NW,315,0.0,3.0,46,0.00,,,0.00,Wunderground v.1.13,2013-03-21 04:10:00,
2013-03-21 00:20:00,32.4,13.9,29.95,NW,315,0.0,3.0,46,0.00,,,0.00,Wunderground v.1.13,2013-03-21 04:20:00,
2013-03-21 00:30:00,32.4,13.9,29.95,NW,315,0.0,3.0,46,0.00,,,0.00,Wunderground v.1.13,2013-03-21 04:30:00,
2013-03-21 00:40:00,32.4,13.9,29.95,NW,315,0.0,3.0,46,0.00,,,0.00,Wunderground v.1.13,2013-03-21 04:40:00,
2013-03-21 00:50:00,31.2,12.3,29.95,WNW,293,0.0,4.0,45,0.00,,,0.00,Wunderground v.1.13,2013-03-21 04:50:00,
2013-03-21 01:00:00,31.2,12.3,29.95,WNW,293,0.0,4.0,45,0.00,,,0.00,Wunderground v.1.13,2013-03-21 05:00:00,
2013-03-21 01:10:00,31.2,12.3,29.95,WNW,293,0.0,4.0,45,0.00,,,0.00,Wunderground v.1.13,2013-03-21 05:10:00,
2013-03-21 01:20:00,30.3,13.4,29.95,NW,315,0.0,3.0,49,0.00,,,0.00,Wunderground v.1.13,2013-03-21 05:20:00,
2013-03-21 01:30:00,30.3,13.4,29.95,NW,315,0.0,3.0,49,0.00,,,0.00,Wunderground v.1.13,2013-03-21 05:30:00,
2013-03-21 01:40:00,30.3,13.4,29.95,NW,315,0.0,3.0,49,0.00,,,0.00,Wunderground v.1.13,2013-03-21 05:40:00,
2013-03-21 01:50:00,29.6,11.8,29.94,WNW,293,0.0,4.0,47,0.00,,,0.00,Wunderground v.1.13,2013-03-21 05:50:00,
2013-03-21 02:00:00,29.6,11.8,29.94,WNW,293,0.0,4.0,47,0.00,,,0.00,Wunderground v.1.13,2013-03-21 06:00:00,
2013-03-21 02:10:00,29.6,11.8,29.94,WNW,293,0.0,4.0,47,0.00,,,0.00,Wunderground v.1.13,2013-03-21 06:10:00,
2013-03-21 02:20:00,29.2,12.4,29.93,WNW,293,0.0,6.0,49,0.00,,,0.00,Wunderground v.1.13,2013-03-21 06:20:00,
2013-03-21 02:30:00,29.2,12.4,29.93,WNW,293,0.0,6.0,49,0.00,,,0.00,Wunderground v.1.13,2013-03-21 06:30:00,
2013-03-21 02:40:00,29.2,12.4,29.93,WNW,293,0.0,6.0,49,0.00,,,0.00,Wunderground v.1.13,2013-03-21 06:40:00,
2013-03-21 02:50:00,28.3,12.9,29.93,West,270,0.0,3.0,52,0.00,,,0.00,Wunderground v.1.13,2013-03-21 06:50:00,
2013-03-21 03:00:00,28.3,12.9,29.93,West,270,0.0,3.0,52,0.00,,,0.00,Wunderground v.1.13,2013-03-21 07:00:00,
2013-03-21 03:10:00,28.3,12.9,29.93,West,270,0.0,3.0,52,0.00,,,0.00,Wunderground v.1.13,2013-03-21 07:10:00,
2013-03-21 03:20:00,27.5,12.2,29.93,WNW,293,0.0,6.0,52,0.00,,,0.00,Wunderground v.1.13,2013-03-21 07:20:00,
2013-03-21 03:30:00,27.5,12.2,29.93,WNW,293,0.0,6.0,52,0.00,,,0.00,Wunderground v.1.13,2013-03-21 07:30:00,
2013-03-21 03:40:00,27.5,12.2,29.93,WNW,293,0.0,6.0,52,0.00,,,0.00,Wunderground v.1.13,2013-03-21 07:40:00,
2013-03-21 03:50:00,26.8,12.4,29.93,WNW,293,0.0,5.0,54,0.00,,,0.00,Wunderground v.1.13,2013-03-21 07:50:00,
2013-03-21 04:00:00,26.8,12.4,29.93,WNW,293,0.0,5.0,54,0.00,,,0.00,Wunderground v.1.13,2013-03-21 08:00:00,
2013-03-21 04:10:00,26.8,12.4,29.93,WNW,293,0.0,5.0,54,0.00,,,0.00,Wunderground v.1.13,2013-03-21 08:10:00,
2013-03-21 04:20:00,26.0,12.4,29.93,NW,315,0.0,2.0,56,0.00,,,0.00,Wunderground v.1.13,2013-03-21 08:20:00,
2013-03-21 04:30:00,26.0,12.4,29.93,NW,315,0.0,2.0,56,0.00,,,0.00,Wunderground v.1.13,2013-03-21 08:30:00,
2013-03-21 04:40:00,26.0,12.4,29.93,NW,315,0.0,2.0,56,0.00,,,0.00,Wunderground v.1.13,2013-03-21 08:40:00,
2013-03-21 04:50:00,25.5,13.1,29.94,NW,315,0.0,1.0,59,0.00,,,0.00,Wunderground v.1.13,2013-03-21 08:50:00,
2013-03-21 05:00:00,25.5,13.1,29.94,NW,315,0.0,1.0,59,0.00,,,0.00,Wunderground v.1.13,2013-03-21 09:00:00,
2013-03-21 05:10:00,25.5,13.1,29.94,NW,315,0.0,1.0,59,0.00,,,0.00,Wunderground v.1.13,2013-03-21 09:10:00,
2013-03-21 05:20:00,25.0,12.3,29.94,WNW,293,0.0,2.0,58,0.00,,,0.00,Wunderground v.1.13,2013-03-21 09:20:00,
2013-03-21 05:30:00,25.0,12.3,29.94,WNW,293,0.0,2.0,58,0.00,,,0.00,Wunderground v.1.13,2013-03-21 09:30:00,
2013-03-21 05:40:00,25.0,12.3,29.94,WNW,293,0.0,2.0,58,0.00,,,0.00,Wunderground v.1.13,2013-03-21 09:40:00,
2013-03-21 05:50:00,24.6,13.4,29.95,WNW,293,0.0,4.0,62,0.00,,,0.00,Wunderground v.1.13,2013-03-21 09:50:00,
2013-03-21 06:00:00,24.6,13.4,29.95,WNW,293,0.0,4.0,62,0.00,,,0.00,Wunderground v.1.13,2013-03-21 10:00:00,
2013-03-21 07:30:00,24.4,12.9,29.95,WNW,292,0.0,4.0,61,0.00,,,0.00,Wunderground v.1.13,2013-03-21 11:30:00,
2013-03-21 07:40:00,24.3,13.1,29.95,WNW,292,0.0,4.0,62,0.00,,,0.00,Wunderground v.1.13,2013-03-21 11:40:00,
2013-03-21 07:50:00,24.1,12.9,29.95,West,272,0.0,4.0,62,0.00,,,0.00,Wunderground v.1.13,2013-03-21 11:50:00,
2013-03-21 08:00:00,24.1,13.7,29.95,West,272,0.0,4.0,64,0.00,,,0.00,Wunderground v.1.13,2013-03-21 12:00:00,
2013-03-21 08:10:00,24.0,13.2,29.95,West,272,0.0,4.0,63,0.00,,,0.00,Wunderground v.1.13,2013-03-21 12:10:00,
2013-03-21 08:20:00,24.0,12.9,29.95,SSE,148,0.0,4.0,62,0.00,,,0.00,Wunderground v.1.13,2013-03-21 12:20:00,
2013-03-21 08:30:00,24.3,12.4,29.96,SW,232,0.0,4.0,60,0.00,,,0.00,Wunderground v.1.13,2013-03-21 12:30:00,
2013-03-21 08:40:00,24.6,12.7,29.97,NW,306,0.0,4.0,60,0.00,,,0.00,Wunderground v.1.13,2013-03-21 12:40:00,
2013-03-21 08:50:00,24.9,13.0,29.97,SW,227,0.0,4.0,60,0.00,,,0.00,Wunderground v.1.13,2013-03-21 12:50:00,
2013-03-21 09:00:00,25.0,13.1,29.97,NW,307,0.0,4.0,60,0.00,,,0.00,Wunderground v.1.13,2013-03-21 13:00:00,
2013-03-21 09:10:00,25.3,12.6,29.97,South,179,0.0,4.0,58,0.00,,,0.00,Wunderground v.1.13,2013-03-21 13:10:00,
2013-03-21 09:20:00,25.5,12.0,29.97,SW,226,1.0,1.0,56,0.00,,,0.00,Wunderground v.1.13,2013-03-21 13:20:00,
2013-03-21 09:30:00,25.7,11.3,29.98,WNW,286,0.0,4.0,54,0.00,,,0.00,Wunderground v.1.13,2013-03-21 13:30:00,
2013-03-21 09:40:00,25.9,10.7,29.98,SW,226,0.0,4.0,52,0.00,,,0.00,Wunderground v.1.13,2013-03-21 13:40:00,
2013-03-21 09:50:00,26.2,9.6,29.98,South,190,1.0,4.0,49,0.00,,,0.00,Wunderground v.1.13,2013-03-21 13:50:00,
2013-03-21 10:00:00,26.6,11.3,29.98,SSW,210,0.0,4.0,52,0.00,,,0.00,Wunderground v.1.13,2013-03-21 14:00:00,
2013-03-21 10:10:00,27.7,11.5,29.98,West,275,1.0,4.0,50,0.00,,,0.00,Wunderground v.1.13,2013-03-21 14:10:00,
2013-03-21 10:20:00,27.7,9.6,29.98,WNW,296,1.0,4.0,46,0.00,,,0.00,Wunderground v.1.13,2013-03-21 14:20:00,
2013-03-21 10:30:00,27.8,9.7,29.98,NW,313,1.0,4.0,46,0.00,,,0.00,Wunderground v.1.13,2013-03-21 14:30:00,
2013-03-21 10:40:00,28.7,9.0,29.98,WSW,237,1.0,4.0,43,0.00,,,0.00,Wunderground v.1.13,2013-03-21 14:40:00,
2013-03-21 10:50:00,29.0,8.7,29.98,WNW,284,1.0,4.0,42,0.00,,,0.00,Wunderground v.1.13,2013-03-21 14:50:00,
2013-03-21 11:00:00,29.3,7.9,29.98,NW,317,1.0,1.0,40,0.00,,,0.00,Wunderground v.1.13,2013-03-21 15:00:00,
2013-03-21 11:10:00,29.9,8.5,29.98,West,261,1.0,4.0,40,0.00,,,0.00,Wunderground v.1.13,2013-03-21 15:10:00,
2013-03-21 11:20:00,29.9,10.6,29.98,NNW,339,1.0,4.0,44,0.00,,,0.00,Wunderground v.1.13,2013-03-21 15:20:00,
2013-03-21 11:30:00,30.5,9.6,29.98,WNW,294,1.0,1.0,41,0.00,,,0.00,Wunderground v.1.13,2013-03-21 15:30:00,
2013-03-21 11:40:00,30.2,8.7,29.99,WSW,257,1.0,4.0,40,0.00,,,0.00,Wunderground v.1.13,2013-03-21 15:40:00,
2013-03-21 11:50:00,30.8,9.8,29.99,WNW,288,2.0,4.0,41,0.00,,,0.00,Wunderground v.1.13,2013-03-21 15:50:00,
2013-03-21 12:00:00,31.2,9.6,29.99,WSW,250,1.0,4.0,40,0.00,,,0.00,Wunderground v.1.13,2013-03-21 16:00:00,
2013-03-21 12:10:00,31.5,9.9,29.99,WSW,248,1.0,1.0,40,0.00,,,0.00,Wunderground v.1.13,2013-03-21 16:10:00,
2013-03-21 12:20:00,31.8,10.2,29.99,West,269,2.0,2.0,40,0.00,,,0.00,Wunderground v.1.13,2013-03-21 16:20:00,
2013-03-21 12:30:00,31.8,8.4,29.99,South,180,2.0,2.0,37,0.00,,,0.00,Wunderground v.1.13,2013-03-21 16:30:00,
2013-03-21 12:40:00,33.1,10.2,29.99,WNW,284,1.0,4.0,38,0.00,,,0.00,Wunderground v.1.13,2013-03-21 16:40:00,
2013-03-21 12:50:00,33.3,9.2,29.99,WNW,291,2.0,4.0,36,0.00,,,0.00,Wunderground v.1.13,2013-03-21 16:50:00,
2013-03-21 13:00:00,34.2,9.4,29.98,West,271,2.0,4.0,35,0.00,,,0.00,Wunderground v.1.13,2013-03-21 17:00:00,
2013-03-21 13:10:00,34.2,10.0,29.98,WSW,252,1.0,1.0,36,0.00,,,0.00,Wunderground v.1.13,2013-03-21 17:10:00,
2013-03-21 13:20:00,34.6,11.0,29.98,South,181,2.0,4.0,37,0.00,,,0.00,Wunderground v.1.13,2013-03-21 17:20:00,
2013-03-21 13:30:00,34.3,10.7,29.98,NW,305,2.0,4.0,37,0.00,,,0.00,Wunderground v.1.13,2013-03-21 17:30:00,
2013-03-21 13:40:00,34.6,9.1,29.98,West,280,2.0,2.0,34,0.00,,,0.00,Wunderground v.1.13,2013-03-21 17:40:00,
2013-03-21 13:50:00,35.4,10.4,29.98,WSW,254,2.0,4.0,35,0.00,,,0.00,Wunderground v.1.13,2013-03-21 17:50:00,
2013-03-21 14:00:00,35.8,8.8,29.97,SSW,192,2.0,4.0,32,0.00,,,0.00,Wunderground v.1.13,2013-03-21 18:00:00,
2013-03-21 14:10:00,35.1,11.4,29.97,NW,321,2.0,9.0,37,0.00,,,0.00,Wunderground v.1.13,2013-03-21 18:10:00,
2013-03-21 14:20:00,35.8,9.5,29.97,SSW,198,2.0,4.0,33,0.00,,,0.00,Wunderground v.1.13,2013-03-21 18:20:00,
2013-03-21 14:30:00,36.5,8.7,29.97,West,281,2.0,4.0,31,0.00,,,0.00,Wunderground v.1.13,2013-03-21 18:30:00,
2013-03-21 14:40:00,36.5,8.7,29.96,NW,313,2.0,2.0,31,0.00,,,0.00,Wunderground v.1.13,2013-03-21 18:40:00,
2013-03-21 14:50:00,37.2,10.7,29.96,SSW,200,2.0,6.0,33,0.00,,,0.00,Wunderground v.1.13,2013-03-21 18:50:00,
2013-03-21 15:00:00,37.4,9.5,29.95,SW,229,2.0,2.0,31,0.00,,,0.00,Wunderground v.1.13,2013-03-21 19:00:00,
2013-03-21 15:10:00,37.8,10.5,29.95,West,279,2.0,4.0,32,0.00,,,0.00,Wunderground v.1.13,2013-03-21 19:10:00,
2013-03-21 15:20:00,37.1,11.3,29.95,West,277,2.0,4.0,34,0.00,,,0.00,Wunderground v.1.13,2013-03-21 19:20:00,
2013-03-21 15:30:00,38.5,9.7,29.95,NE,52,2.0,2.0,30,0.00,,,0.00,Wunderground v.1.13,2013-03-21 19:30:00,
2013-03-21 15:40:00,39.4,10.5,29.95,WNW,287,1.0,4.0,30,0.00,,,0.00,Wunderground v.1.13,2013-03-21 19:40:00,
2013-03-21 15:50:00,40.0,10.3,29.95,West,277,2.0,2.0,29,0.00,,,0.00,Wunderground v.1.13,2013-03-21 19:50:00,
2013-03-21 16:00:00,39.4,8.9,29.94,West,261,2.0,2.0,28,0.00,,,0.00,Wunderground v.1.13,2013-03-21 20:00:00,
2013-03-21 16:10:00,40.1,13.3,29.95,West,267,2.0,2.0,33,0.00,,,0.00,Wunderground v.1.13,2013-03-21 20:10:00,
2013-03-21 16:20:00,40.4,9.8,29.95,SW,233,2.0,2.0,28,0.00,,,0.00,Wunderground v.1.13,2013-03-21 20:20:00,
2013-03-21 16:30:00,40.4,9.0,29.94,WNW,294,2.0,4.0,27,0.00,,,0.00,Wunderground v.1.13,2013-03-21 20:30:00,
2013-03-21 16:40:00,41.4,9.9,29.94,SW,225,2.0,2.0,27,0.00,,,0.00,Wunderground v.1.13,2013-03-21 20:40:00,
2013-03-21 16:50:00,41.1,10.4,29.94,WSW,244,2.0,4.0,28,0.00,,,0.00,Wunderground v.1.13,2013-03-21 20:50:00,
2013-03-21 17:00:00,42.0,10.4,29.93,SW,217,1.0,1.0,27,0.00,,,0.00,Wunderground v.1.13,2013-03-21 21:00:00,
2013-03-21 17:10:00,41.8,9.4,29.93,WSW,257,1.0,1.0,26,0.00,,,0.00,Wunderground v.1.13,2013-03-21 21:10:00,
2013-03-21 17:20:00,41.4,10.7,29.93,West,277,1.0,4.0,28,0.00,,,0.00,Wunderground v.1.13,2013-03-21 21:20:00,
2013-03-21 17:30:00,42.1,11.3,29.93,WSW,258,1.0,4.0,28,0.00,,,0.00,Wunderground v.1.13,2013-03-21 21:30:00,
2013-03-21 17:40:00,41.8,9.4,29.93,West,279,1.0,4.0,26,0.00,,,0.00,Wunderground v.1.13,2013-03-21 21:40:00,
2013-03-21 17:50:00,41.8,9.4,29.93,West,275,2.0,4.0,26,0.00,,,0.00,Wunderground v.1.13,2013-03-21 21:50:00,
2013-03-21 18:00:00,41.5,10.8,29.93,West,279,1.0,1.0,28,0.00,,,0.00,Wunderground v.1.13,2013-03-21 22:00:00,
2013-03-21 18:10:00,42.2,10.6,29.93,West,273,1.0,4.0,27,0.00,,,0.00,Wunderground v.1.13,2013-03-21 22:10:00,
2013-03-21 18:20:00,41.7,10.9,29.93,SW,223,1.0,4.0,28,0.00,,,0.00,Wunderground v.1.13,2013-03-21 22:20:00,
2013-03-21 18:30:00,42.0,11.2,29.93,SW,236,1.0,1.0,28,0.00,,,0.00,Wunderground v.1.13,2013-03-21 22:30:00,
2013-03-21 18:40:00,42.1,10.5,29.93,NW,315,1.0,1.0,27,0.00,,,0.00,Wunderground v.1.13,2013-03-21 22:40:00,
2013-03-21 18:50:00,41.4,10.7,29.93,WNW,297,1.0,1.0,28,0.00,,,0.00,Wunderground v.1.13,2013-03-21 22:50:00,
2013-03-21 19:00:00,40.7,10.1,29.93,West,281,0.0,4.0,28,0.00,,,0.00,Wunderground v.1.13,2013-03-21 23:00:00,
2013-03-21 19:10:00,39.7,9.2,29.94,NNE,14,0.0,4.0,28,0.00,,,0.00,Wunderground v.1.13,2013-03-21 23:10:00,
2013-03-21 19:20:00,38.7,9.9,29.94,NW,321,0.0,4.0,30,0.00,,,0.00,Wunderground v.1.13,2013-03-21 23:20:00,
2013-03-21 19:30:00,37.8,11.2,29.94,NW,321,0.0,4.0,33,0.00,,,0.00,Wunderground v.1.13,2013-03-21 23:30:00,
2013-03-21 19:40:00,36.9,11.8,29.95,NW,324,0.0,4.0,35,0.00,,,0.00,Wunderground v.1.13,2013-03-21 23:40:00,
2013-03-21 19:50:00,36.4,10.7,29.95,NW,324,0.0,4.0,34,0.00,,,0.00,Wunderground v.1.13,2013-03-21 23:50:00,
2013-03-21 20:00:00,35.9,10.2,29.96,NW,324,0.0,4.0,34,0.00,,,0.00,Wunderground v.1.13,2013-03-22 00:00:00,
2013-03-21 20:10:00,35.5,13.0,29.96,NW,324,0.0,4.0,39,0.00,,,0.00,Wunderground v.1.13,2013-03-22 00:10:00,
2013-03-21 20:20:00,34.8,11.7,29.96,NW,324,0.0,4.0,38,0.00,,,0.00,Wunderground v.1.13,2013-03-22 00:20:00,
2013-03-21 20:30:00,34.0,12.2,29.96,NW,324,0.0,4.0,40,0.00,,,0.00,Wunderground v.1.13,2013-03-22 00:30:00,
2013-03-21 20:40:00,33.6,12.4,29.96,NW,324,0.0,4.0,41,0.00,,,0.00,Wunderground v.1.13,2013-03-22 00:40:00,
2013-03-21 20:50:00,33.3,11.5,29.96,NW,324,0.0,4.0,40,0.00,,,0.00,Wunderground v.1.13,2013-03-22 00:50:00,
2013-03-21 21:00:00,33.1,12.5,29.97,NW,324,0.0,4.0,42,0.00,,,0.00,Wunderground v.1.13,2013-03-22 01:00:00,
2013-03-21 21:10:00,32.7,13.7,29.98,NW,324,0.0,4.0,45,0.00,,,0.00,Wunderground v.1.13,2013-03-22 01:10:00,
2013-03-21 21:20:00,32.3,13.3,29.98,NW,324,0.0,4.0,45,0.00,,,0.00,Wunderground v.1.13,2013-03-22 01:20:00,
2013-03-21 21:30:00,32.0,13.0,29.98,NW,324,0.0,4.0,45,0.00,,,0.00,Wunderground v.1.13,2013-03-22 01:30:00,
2013-03-21 21:40:00,31.8,14.3,29.98,NW,324,0.0,4.0,48,0.00,,,0.00,Wunderground v.1.13,2013-03-22 01:40:00,
2013-03-21 21:50:00,31.5,14.0,29.98,NW,324,0.0,4.0,48,0.00,,,0.00,Wunderground v.1.13,2013-03-22 01:50:00,
2013-03-21 22:00:00,31.4,12.5,29.98,NE,42,0.0,4.0,45,0.00,,,0.00,Wunderground v.1.13,2013-03-22 02:00:00,
2013-03-21 22:10:00,31.2,13.3,29.99,NE,42,0.0,4.0,47,0.00,,,0.00,Wunderground v.1.13,2013-03-22 02:10:00,
2013-03-21 22:20:00,31.1,13.2,29.99,NE,42,0.0,4.0,47,0.00,,,0.00,Wunderground v.1.13,2013-03-22 02:20:00,
2013-03-21 22:30:00,30.8,12.4,29.99,NE,42,0.0,4.0,46,0.00,,,0.00,Wunderground v.1.13,2013-03-22 02:30:00,
2013-03-21 22:40:00,30.6,11.7,29.99,NE,42,0.0,4.0,45,0.00,,,0.00,Wunderground v.1.13,2013-03-22 02:40:00,
2013-03-21 22:50:00,30.5,13.6,29.99,NE,42,0.0,4.0,49,0.00,,,0.00,Wunderground v.1.13,2013-03-22 02:50:00,
2013-03-21 23:00:00,30.2,12.8,30.00,NE,42,0.0,4.0,48,0.00,,,0.00,Wunderground v.1.13,2013-03-22 03:00:00,
2013-03-21 23:10:00,30.0,13.1,30.00,NE,42,0.0,4.0,49,0.00,,,0.00,Wunderground v.1.13,2013-03-22 03:10:00,
2013-03-21 23:20:00,29.6,12.3,30.00,NE,42,0.0,4.0,48,0.00,,,0.00,Wunderground v.1.13,2013-03-22 03:20:00,
2013-03-21 23:30:00,29.3,13.4,30.00,NE,42,0.0,4.0,51,0.00,,,0.00,Wunderground v.1.13,2013-03-22 03:30:00,
2013-03-21 23:40:00,29.2,12.8,30.01,NE,42,0.0,4.0,50,0.00,,,0.00,Wunderground v.1.13,2013-03-22 03:40:00,
2013-03-21 23:50:00,29.2,12.8,30.01,NE,42,0.0,4.0,50,0.00,,,0.00,Wunderground v.1.13,2013-03-22 03:50:00,